sat.trackr.live / text

‹ back to catalog

STARLINK-37325

NORAD 68748 · 2026-082W

PAYLOAD ACTIVE UNKNOWN

§ Identity

Operator
Country
US
Launch date
2026-04-15
Launch site
AFWTR
Launch vehicle
Mass (kg)
RCS (m²)

Purposes: comms

External: N2YO · Heavens-Above · Gunter

§ Orbital elements

Epoch: 2026-05-25T02:46:29.092800Z

Period
92.95 min
Inclination
97.2887°
Eccentricity
0.0003314
Mean motion
15.49218739 rev/d
Perigee alt
416.8 km
Apogee alt
421.3 km
Semi-major
6,797.1 km
B*
6.4221e-4
RAAN
8.6581°
Arg perigee
86.3511°
Mean anomaly
273.8119°
Rev number
614

§ Raw data

STARLINK-373251 68748U 26082W   26145.11561450  .00035035  00000+0  64221-3 0  99952 68748  97.2887   8.6581 0003314  86.3511 273.8119 15.49218739  6140

JSON: /api/v1/satellites/68748 · /tle

For live sub-satellite position, see the globe view (requires WebGL).

§ Visibility from observer

Set your observer location to see the next 7 days of passes ≥ 10°. The values pass through the URL so the page stays shareable.

No JS? Fill the form by hand. The geolocation button needs JavaScript.